Regional Weather Roundup
Issued by NWS Goodland, KS

Home | Current Version | Previous Version | Graphics & Text | Print | Product List | Glossary On
Versions: 1 2 3 4 5 6 7 8 9 10 11 12 13 14 15 16 17 18 19 20 21 22 23 24 25 26 27 28 29 30 31 32 33 34 35 36 37 38 39 40 41 42 43 44 45 46 47 48 49 50
000
ASUS43 KGLD 231108
RWRGLD

GOODLAND FORECAST AREA HOURLY WEATHER ROUNDUP
NATIONAL WEATHER SERVICE GOODLAND KS
500 AM MDT WED APR 23 2014

...OFFICIAL OBSERVATIONS...

CITY           SKY/WX    TMP DP  RH WIND       PRES   REMARKS
GOODLAND KS    CLOUDY    60  41  49 S24G31    29.61F
HILL CITY KS   CLOUDY    57  41  55 S12G22    29.70F
IMPERIAL NEB   MOCLDY    60  43  53 S17       29.55F
MCCOOK NEB     CLOUDY    57  43  59 SE8       29.62S
AKRON CO       CLOUDY    61  37  41 SW21G30   29.56F
BURLINGTON CO  CLOUDY    61  41  47 S28G36    29.64F
LIMON CO       CLOUDY    53  37  54 S13       29.67S
$$

...UNOFFICIAL OBSERVATIONS...

CITY           SKY/WX    TMP DP  RH WIND       PRES   REMARKS
COLBY KS       CLEAR     59  48  67 S22G29    29.64S
LENORA KS        N/A     56  32  40 SE23        N/A
LEOTI KS         N/A     60  32  34 SW7         N/A
NORTON KS      CLEAR     54  34  47 SE12      29.67F
SHARON SPRINGS   N/A     59  42  52 S15G23      N/A
ST FRANCIS KS  CLOUDY    61  39  44 S21G30    29.57F
WAKEENEY KS      N/A     57  39  52 MISG        N/A
KIT CARSON CO    N/A     59  42  53 MISG        N/A
$$



USA.gov is the U.S. government's official web portal to all federal, state and local government web resources and services.